Wind_Speed
16 16 15 15 14 11 8 7 6 5 5 4 4 4 5 7 9 10 11 11 12 12 10 10 9 9 10 9 9 8 8 8 7 6 6 6 6 6 7 7 7 7 8
16 17 16 15 12 10 8 6 5 5 4 4 3 2 3 6 7 10 10 10 11 12 12 11 10 11 10 10 10 10 10 10 9 8 8 8 8 9 9 9 8 9 9
15 15 14 13 12 10 8 6 5 5 4 4 3 3 3 4 6 9 10 11 11 11 11 11 11 11 11 10 11 11 10 10 10 10 10 10 10 10 10 10 10 10 10
15 15 15 13 12 10 8 6 6 5 5 4 5 5 4 5 5 7 9 11 12 13 12 12 11 11 12 12 12 12 12 11 11 11 11 11 11 11 11 11 12 12 12
14 15 14 13 12 9 7 7 6 5 5 5 5 5 5 6 6 7 9 11 12 13 13 13 13 12 12 13 13 13 13 13 12 12 12 12 12 13 13 14 14 13 13
15 15 14 13 12 10 8 7 7 6 5 5 6 5 6 6 6 7 8 10 11 13 14 13 14 14 13 14 14 14 15 15 15 14 14 14 14 14 15 15 15 15 15
14 15 13 12 12 10 9 7 7 8 7 7 7 6 6 6 6 7 8 9 11 12 14 14 15 15 15 15 15 15 16 17 17 16 16 15 15 16 16 16 17 17 17
13 13 12 12 11 9 9 8 8 8 8 8 8 6 6 7 8 8 9 10 11 12 14 14 15 16 16 16 16 16 17 17 17 17 17 17 17 17 18 18 18 18 18
13 13 11 10 9 9 9 8 8 8 8 8 7 7 7 8 9 9 10 11 11 13 14 15 15 16 17 17 16 16 17 17 17 18 19 19 19 20 20 20 20 20 20
12 12 11 9 8 8 8 9 9 9 8 8 8 8 8 9 9 10 10 10 12 13 14 14 15 16 17 17 18 17 18 19 19 19 20 20 20 21 21 21 22 22 23
12 13 10 8 8 8 8 9 10 9 9 8 8 8 9 10 10 11 12 12 13 13 14 15 16 16 17 18 18 19 19 19 20 20 21 21 22 22 22 22 22 23 23
11 11 10 8 8 9 9 10 10 9 8 8 8 9 10 10 11 12 13 13 13 14 15 15 15 16 17 18 19 19 19 20 20 20 21 22 22 23 23 23 24 25 25
12 12 11 9 9 9 9 9 9 9 9 9 9 10 11 11 12 12 12 13 14 14 14 14 15 16 16 17 18 19 20 19 20 20 21 22 23 23 23 24 24 25 26
13 12 11 11 10 10 10 10 10 9 9 9 9 10 10 11 12 13 13 13 14 14 14 14 15 16 16 17 18 19 20 19 19 20 21 22 23 23 24 25 25 26 26
13 13 12 12 12 11 11 10 10 10 10 10 10 10 11 11 12 13 13 13 14 14 15 16 16 17 17 18 19 19 19 20 21 22 22 23 24 24 25 25 26 27 27
14 14 14 13 13 12 12 11 11 11 12 11 11 11 12 12 13 13 14 14 15 15 16 16 16 17 17 18 19 20 21 21 22 22 23 23 24 25 25 26 27 27 28
16 16 16 14 13 14 14 13 13 13 13 13 13 13 13 14 14 13 14 14 14 14 15 16 16 17 17 18 19 21 22 22 23 23 24 24 24 25 26 26 28 28 28
17 16 16 15 15 15 14 14 14 14 14 14 14 14 14 15 14 14 14 14 14 15 16 16 17 18 18 19 20 20 21 21 23 23 24 24 25 25 26 27 28 28 28
18 17 16 16 16 16 16 16 16 16 16 15 15 15 15 15 16 16 15 15 16 17 17 17 18 19 20 20 21 21 21 22 23 23 24 25 25 25 26 26 27 28 29
20 18 18 18 18 17 17 17 17 17 17 17 17 17 17 17 17 17 17 17 17 18 18 19 19 19 20 20 21 22 22 23 23 24 25 26 26 27 26 27 28 28 29
21 20 20 19 19 19 18 18 18 18 17 17 18 18 18 19 18 18 18 19 19 19 19 19 20 20 21 22 22 22 23 24 25 25 25 26 26 27 27 28 28 28 29
23 23 22 22 20 20 20 20 20 19 19 19 19 20 20 20 19 20 20 20 20 20 20 20 21 21 22 22 22 23 24 25 26 26 26 26 27 27 27 28 29 29 30
26 25 25 24 22 22 22 21 21 21 20 20 21 21 21 21 22 22 21 22 22 22 22 22 22 23 23 23 24 24 24 25 26 27 27 27 27 27 27 28 28 29 29
28 28 27 25 23 22 22 22 21 21 21 21 22 22 22 23 23 23 23 23 23 23 24 24 24 24 23 24 24 25 25 25 26 26 26 26 26 27 28 28 28 29 30
28 27 27 26 25 25 24 24 23 23 23 23 23 24 24 24 23 24 24 24 24 24 24 24 24 24 25 25 25 26 25 25 25 25 26 27 27 27 28 29 29 30 31
30 29 28 27 27 26 26 25 25 25 25 25 25 25 25 24 25 25 24 24 24 24 24 24 25 26 26 26 26 26 26 26 27 26 26 27 27 28 29 30 31 32 32
Wind_Direction
340 338 339 341 339 337 324 316 314 313 309 301 277 252 239 240 235 234 231 233 232 228 227 229 234 235 235 237 239 243 247 249 250 259 265 264 263 266 270 275 274 274 275
338 338 340 339 339 337 329 320 308 304 310 326 307 273 256 256 242 239 235 236 234 231 231 235 238 239 241 241 242 246 251 254 256 259 264 266 265 267 270 273 274 273 274
335 336 337 336 337 332 323 312 304 296 305 320 317 301 278 274 247 237 233 230 233 235 234 236 241 243 245 245 245 247 251 255 256 258 262 265 267 270 273 274 275 276 274
335 335 335 332 331 325 316 309 304 295 288 290 285 287 280 282 261 244 237 233 233 234 235 238 245 246 245 247 249 250 251 255 257 259 261 264 266 268 271 273 275 276 275
333 333 333 329 325 320 317 309 306 293 286 278 276 279 274 274 261 248 240 236 231 233 235 237 247 249 249 249 249 252 254 256 259 260 261 263 267 269 270 272 273 275 274
328 329 329 327 324 318 313 304 305 296 289 277 272 273 271 270 266 258 248 245 240 238 236 242 245 247 249 249 249 251 255 256 258 260 260 262 264 267 269 271 273 273 272
326 329 328 325 323 319 313 301 298 293 289 278 276 270 270 270 263 264 258 248 246 243 240 243 246 245 246 250 252 255 258 258 259 260 260 263 264 265 268 270 271 273 274
321 325 328 324 323 320 316 308 294 292 288 283 281 274 272 272 265 265 263 254 252 250 245 244 246 245 247 251 256 258 259 260 260 261 263 265 266 266 267 269 270 271 272
324 325 327 322 320 316 316 318 308 298 286 282 281 274 274 276 272 271 268 261 258 256 256 251 250 252 254 254 257 260 261 261 261 262 263 265 267 267 266 267 267 270 271
325 323 322 323 319 318 318 316 315 306 296 282 273 272 276 278 277 274 270 265 260 258 260 255 255 256 257 258 258 259 261 261 261 261 262 265 268 268 268 266 267 271 273
329 330 323 319 319 319 320 319 319 314 302 287 279 277 278 280 276 276 271 267 262 261 261 260 258 259 259 259 262 263 263 264 264 265 265 265 267 268 270 270 271 272 274
330 333 332 325 323 321 321 318 319 312 311 299 284 280 281 280 278 278 275 272 269 264 264 267 264 263 261 261 265 266 265 266 266 268 268 266 266 266 267 269 271 273 275
328 327 327 328 320 317 314 313 316 313 312 308 297 290 287 283 283 282 281 277 271 269 271 270 268 267 266 264 265 265 267 269 270 272 272 271 270 269 268 270 272 275 276
322 320 321 323 319 313 308 305 307 308 307 305 300 296 292 287 284 282 280 278 272 268 269 272 273 273 269 267 269 268 268 270 275 276 276 274 273 271 270 272 274 276 277
317 316 317 318 318 312 307 305 305 303 302 302 300 296 292 289 288 285 280 278 273 271 271 272 274 276 273 269 271 273 272 275 277 278 278 277 275 274 274 275 275 275 275
314 317 318 316 314 308 304 302 304 301 298 297 297 294 292 290 290 290 284 280 276 274 273 273 276 276 275 273 272 274 276 279 280 280 281 280 278 277 276 277 276 277 277
308 309 313 310 309 305 301 300 298 297 297 297 295 294 293 291 290 289 288 286 281 279 277 278 278 278 277 276 276 279 280 281 282 281 282 281 280 278 277 278 281 281 281
306 308 308 307 306 304 300 299 299 296 295 294 294 294 295 294 290 288 286 286 285 282 280 280 281 281 280 280 281 282 283 284 284 282 282 283 283 282 281 279 279 279 280
300 303 303 302 304 301 299 299 298 297 295 294 294 294 294 294 291 287 285 285 285 282 280 281 282 282 282 282 282 282 284 283 283 283 283 284 284 283 284 284 283 284 283
291 294 297 298 298 299 297 298 296 297 296 294 293 292 290 290 290 289 286 285 285 286 283 283 282 283 283 283 282 282 283 283 284 284 286 288 286 285 285 285 285 285 286
285 289 291 291 293 296 295 295 294 294 294 293 292 291 291 289 287 287 286 285 285 288 286 285 284 283 282 282 283 283 283 284 286 286 288 290 287 286 287 287 287 288 290
282 284 286 288 289 291 293 292 291 289 291 292 292 291 290 290 288 286 285 284 284 284 284 285 284 283 282 282 283 284 283 284 285 286 288 289 289 289 289 288 289 290 290
278 279 283 284 285 287 287 288 288 286 288 290 291 290 289 288 288 286 283 283 283 282 283 284 284 283 282 282 284 284 284 284 285 287 288 289 290 290 288 288 290 291 292
273 274 279 281 282 284 285 288 289 288 289 289 289 289 287 286 286 285 283 281 281 281 282 284 284 282 282 284 285 284 284 285 287 289 289 289 290 289 290 291 292 294 295
270 272 276 281 282 283 286 286 287 288 289 289 288 288 287 285 285 284 283 281 280 280 281 282 283 282 281 283 286 287 286 287 288 290 291 292 293 293 293 293 293 295 297
270 272 274 278 280 281 282 283 284 286 288 287 287 287 286 286 285 284 281 279 279 279 280 281 281 281 281 282 285 286 285 287 290 291 292 292 293 293 294 295 295 297 298
Height
5894 5891 5888 5886 5883 5881 5880 5880 5879 5878 5877 5877 5877 5877 5878 5878 5880 5881 5883 5884 5886 5887 5889 5890 5891 5892 5894 5895 5895 5896 5897 5897 5898 5898 5898 5898 5899 5899 5899 5899 5899 5899 5899
5892 5890 5888 5885 5883 5881 5880 5879 5878 5878 5876 5876 5875 5876 5877 5877 5878 5880 5881 5883 5884 5885 5887 5888 5889 5891 5892 5893 5894 5894 5895 5895 5896 5897 5897 5897 5898 5897 5897 5897 5897 5897 5897
5891 5889 5886 5884 5882 5881 5879 5879 5878 5877 5876 5876 5875 5875 5875 5876 5877 5878 5879 5880 5882 5884 5885 5887 5888 5889 5890 5891 5891 5892 5893 5893 5894 5894 5895 5895 5895 5895 5895 5895 5895 5895 5895
5889 5887 5884 5883 5881 5880 5879 5878 5877 5876 5876 5875 5875 5874 5874 5874 5875 5876 5877 5878 5880 5881 5883 5884 5885 5886 5887 5888 5889 5890 5891 5891 5892 5892 5892 5893 5893 5893 5893 5893 5893 5892 5892
5888 5885 5883 5881 5880 5878 5878 5877 5876 5875 5875 5874 5874 5873 5873 5873 5874 5874 5875 5876 5877 5879 5880 5881 5883 5884 5885 5886 5887 5888 5888 5889 5889 5890 5890 5890 5890 5890 5890 5890 5890 5890 5889
5886 5884 5882 5880 5878 5877 5876 5875 5874 5874 5873 5872 5872 5872 5872 5872 5872 5872 5873 5874 5875 5876 5877 5878 5880 5881 5882 5883 5884 5885 5886 5886 5886 5887 5887 5887 5887 5887 5887 5887 5887 5887 5886
5885 5882 5880 5878 5877 5875 5874 5873 5872 5872 5871 5870 5870 5870 5870 5870 5870 5870 5871 5872 5873 5873 5874 5876 5877 5878 5879 5879 5880 5881 5882 5883 5883 5883 5883 5884 5884 5883 5883 5883 5883 5883 5883
5883 5881 5879 5877 5875 5874 5873 5871 5870 5869 5869 5869 5869 5868 5868 5868 5869 5869 5869 5869 5870 5871 5872 5873 5873 5874 5875 5876 5877 5878 5878 5879 5879 5879 5880 5880 5880 5880 5879 5879 5879 5878 5879
5880 5879 5877 5875 5873 5872 5871 5870 5869 5867 5867 5867 5867 5867 5867 5867 5867 5867 5867 5867 5868 5868 5869 5869 5870 5871 5871 5872 5873 5874 5874 5874 5875 5875 5875 5875 5875 5875 5875 5875 5874 5875 5874
5878 5876 5874 5872 5871 5870 5870 5869 5868 5866 5865 5865 5865 5865 5865 5865 5865 5865 5864 5864 5865 5865 5866 5866 5866 5867 5868 5868 5869 5869 5870 5870 5870 5870 5870 5870 5870 5870 5870 5870 5869 5869 5869
5876 5874 5872 5870 5869 5869 5868 5868 5866 5864 5863 5863 5863 5863 5864 5863 5863 5862 5862 5862 5862 5862 5862 5862 5863 5863 5863 5864 5864 5864 5865 5865 5865 5865 5865 5865 5865 5865 5865 5864 5864 5864 5863
5874 5873 5871 5869 5868 5868 5867 5866 5865 5863 5862 5861 5861 5861 5861 5861 5860 5860 5859 5859 5859 5859 5859 5859 5859 5859 5859 5859 5860 5860 5860 5860 5860 5860 5860 5860 5859 5859 5859 5859 5858 5858 5857
5872 5871 5870 5868 5867 5866 5866 5865 5863 5862 5861 5860 5859 5859 5858 5858 5858 5857 5856 5856 5856 5856 5856 5855 5855 5855 5855 5855 5855 5855 5855 5855 5855 5855 5854 5854 5853 5853 5853 5853 5852 5852 5851
5870 5869 5868 5867 5866 5865 5864 5863 5862 5860 5859 5858 5857 5857 5856 5855 5855 5854 5853 5852 5852 5852 5852 5852 5852 5852 5851 5851 5851 5850 5850 5850 5850 5850 5849 5848 5848 5847 5847 5847 5846 5846 5845
5868 5866 5865 5864 5863 5862 5861 5860 5859 5858 5857 5856 5855 5854 5853 5852 5851 5850 5849 5849 5849 5849 5848 5848 5848 5847 5847 5847 5846 5846 5845 5845 5844 5844 5843 5843 5842 5842 5841 5841 5840 5839 5838
5865 5864 5863 5861 5861 5860 5859 5858 5857 5856 5854 5853 5852 5851 5850 5849 5848 5847 5846 5845 5845 5845 5844 5844 5844 5843 5842 5842 5841 5841 5840 5840 5839 5838 5838 5837 5836 5835 5835 5834 5833 5832 5831
5862 5861 5860 5859 5858 5857 5856 5855 5854 5852 5851 5850 5849 5848 5847 5845 5844 5843 5842 5841 5841 5840 5840 5840 5840 5839 5838 5837 5837 5836 5835 5834 5834 5833 5832 5831 5830 5829 5828 5827 5826 5824 5823
5858 5857 5856 5855 5855 5854 5853 5851 5850 5849 5848 5847 5846 5845 5843 5842 5841 5839 5838 5838 5837 5837 5836 5836 5835 5834 5834 5833 5832 5831 5830 5829 5828 5827 5826 5824 5823 5822 5821 5820 5818 5817 5816
5854 5853 5852 5851 5851 5850 5849 5848 5846 5845 5844 5843 5842 5841 5839 5838 5837 5835 5834 5834 5833 5833 5832 5831 5830 5830 5829 5828 5827 5826 5825 5824 5822 5821 5820 5818 5816 5815 5814 5813 5812 5810 5809
5849 5849 5848 5847 5846 5845 5844 5843 5842 5841 5840 5838 5837 5836 5835 5834 5832 5831 5830 5829 5829 5828 5827 5826 5825 5824 5823 5822 5821 5820 5819 5818 5816 5815 5813 5812 5810 5809 5807 5806 5804 5803 5801
5843 5843 5842 5842 5841 5840 5839 5838 5837 5836 5835 5834 5832 5831 5830 5829 5828 5826 5825 5824 5824 5823 5822 5821 5820 5819 5818 5817 5815 5814 5813 5812 5810 5809 5807 5805 5803 5801 5800 5799 5797 5795 5794
5837 5837 5836 5836 5835 5834 5834 5833 5831 5831 5830 5829 5827 5826 5825 5823 5822 5821 5820 5819 5818 5817 5816 5815 5814 5813 5812 5811 5810 5808 5807 5806 5804 5802 5800 5799 5797 5795 5793 5791 5790 5788 5786
5830 5830 5830 5829 5829 5828 5828 5827 5826 5825 5824 5823 5821 5820 5819 5817 5816 5815 5814 5813 5812 5811 5810 5809 5808 5807 5806 5805 5803 5802 5800 5799 5797 5795 5794 5792 5790 5788 5786 5784 5782 5780 5778
5823 5823 5823 5823 5822 5822 5821 5821 5819 5818 5818 5816 5815 5814 5812 5811 5810 5809 5808 5807 5806 5805 5804 5803 5801 5800 5799 5798 5796 5795 5793 5792 5790 5789 5786 5785 5783 5781 5779 5777 5775 5773 5770
5816 5816 5816 5816 5816 5815 5814 5814 5813 5812 5811 5810 5808 5807 5806 5804 5803 5802 5801 5800 5799 5798 5797 5796 5795 5793 5792 5791 5790 5788 5786 5785 5783 5782 5780 5778 5776 5774 5772 5770 5767 5765 5762
5808 5808 5809 5809 5808 5808 5807 5807 5806 5805 5804 5803 5801 5800 5799 5798 5796 5795 5794 5793 5792 5791 5790 5789 5788 5786 5785 5784 5783 5781 5780 5778 5777 5775 5773 5771 5769 5767 5765 5762 5759 5757 5754